Home > Time Zones > World Clock > Weather > U.S.A. > Nome > Past weeks

Flag for U.S.A. Weather past 2 weeks in Nome, Alaska, U.S.A.

Now
49 °F

Fog.


Feels Like: 44 °F
Forecast: 49 / 51 °F
Wind: 14 mph from East

Location: Nome Airport

Current Time: Sep 3, 2015 at 12:54:44 AM

Latest Report: Sep 2, 2015 at 11:53 PM


Visibility: 4 mi

Pressure: 29.82 "Hg

Humidity: 97%

Dew point: 48 °F

Location of NomeLocation

Historic Weather in Nome — Graph

°F

Nome temperature yesterday

Maximum temperature yesterday: 54 °F (at 4:53 PM)
Minimum temperature yesterday: 46 °F (at 12:53 AM)
Average temperature yesterday: 51 °F

Past Weeks' High & Low Weather Summary

 TemperatureHumidityPressure
High58 °F (Aug 26, 3:53 PM)100% (Aug 19, 3:53 AM)30.24 "Hg (Aug 19, 3:53 AM)
Low30 °F (Aug 31, 7:53 AM)61% (Aug 28, 6:53 PM)29.44 "Hg (Aug 26, 4:53 AM)
Average47 °F85%29.92 "Hg
* Reported Aug 18 10:53 PM — Sep 2 10:53 PM, Nome, Weather by CustomWeather, © 2015

Note: Actual official high and low records may vary slightly from our data, if they occured in-between our weather recording intervals... More about our weather records

Advertising

Nome weather history for previous 24 hours

 ConditionsComfort  
Time TempWeatherWind HumidityBarometerVisibility
10:53 PM
Wed, Sep 2
51 °FOvercast.15 mph77%29.82 "Hg10 mi
9:53 PM51 °FOvercast.16 mph77%29.82 "Hg10 mi
8:53 PM52 °FOvercast.18 mph72%29.83 "Hg10 mi
7:53 PM52 °FOvercast.21 mph66%29.83 "Hg10 mi
6:53 PM53 °FMostly cloudy.23 mph66%29.83 "Hg10 mi
5:53 PM53 °FMostly cloudy.25 mph64%29.84 "Hg10 mi
4:53 PM54 °FMostly cloudy.22 mph62%29.85 "Hg10 mi
3:53 PM53 °FOvercast.24 mph64%29.85 "Hg10 mi
2:53 PM53 °FMore clouds than sun.16 mph66%29.87 "Hg10 mi
1:53 PM53 °FOvercast.18 mph66%29.88 "Hg10 mi
12:53 PM53 °FMostly cloudy.22 mph64%29.87 "Hg10 mi
11:53 AM52 °FMostly cloudy.18 mph64%29.88 "Hg10 mi
10:53 AM51 °FMore clouds than sun.17 mph63%29.89 "Hg10 mi
9:53 AM50 °FOvercast.14 mph63%29.90 "Hg10 mi
8:53 AM50 °FOvercast.15 mph61%29.91 "Hg10 mi
7:53 AM49 °FPassing clouds.13 mph66%29.91 "Hg10 mi
6:53 AM49 °FPassing clouds.13 mph64%29.93 "Hg10 mi
5:53 AM50 °FPassing clouds.12 mph61%29.95 "Hg10 mi
4:53 AM50 °FPassing clouds.10 mph61%29.96 "Hg10 mi
3:53 AM47 °FPassing clouds.7 mph69%29.98 "Hg10 mi
2:53 AM46 °FPassing clouds.7 mph77%29.99 "Hg10 mi
1:53 AM47 °FPassing clouds.8 mph77%29.99 "Hg10 mi
12:53 AM46 °FClear.9 mph89%30.01 "Hg10 mi
Weather by CustomWeather, © 2015

See weather overviewHow to use our weather pages